TimePDT,TemperatureF,Dew PointF,Humidity,Sea Level PressureIn,VisibilityMPH,Wind Direction,Wind SpeedMPH,Gust SpeedMPH,PrecipitationIn,Events,Conditions,WindDirDegrees,DateUTC
12:15 AM,50.0,21.2,32,30.18,10.0,Calm,Calm,-,N/A,,Clear,0,2013-06-16 07:15:00
12:35 AM,46.4,21.2,37,30.18,10.0,Calm,Calm,-,N/A,,Clear,0,2013-06-16 07:35:00
12:55 AM,46.4,21.2,37,30.18,10.0,Calm,Calm,-,N/A,,Clear,0,2013-06-16 07:55:00
1:15 AM,46.4,21.2,37,30.18,10.0,Calm,Calm,-,N/A,,Clear,0,2013-06-16 08:15:00
1:35 AM,46.4,23.0,40,30.18,10.0,South,4.6,-,N/A,,Clear,180,2013-06-16 08:35:00
1:55 AM,44.6,21.2,39,30.18,10.0,South,5.8,-,N/A,,Clear,170,2013-06-16 08:55:00
2:15 AM,44.6,21.2,39,30.18,10.0,Calm,Calm,-,N/A,,Clear,0,2013-06-16 09:15:00
2:35 AM,44.6,21.2,39,30.18,10.0,Calm,Calm,-,N/A,,Clear,0,2013-06-16 09:35:00
2:55 AM,44.6,21.2,39,30.18,10.0,South,5.8,-,N/A,,Clear,180,2013-06-16 09:55:00
3:15 AM,42.8,23.0,46,30.18,10.0,Calm,Calm,-,N/A,,Clear,0,2013-06-16 10:15:00
3:35 AM,42.8,23.0,46,30.18,10.0,Calm,Calm,-,N/A,,Clear,0,2013-06-16 10:35:00
3:55 AM,44.6,23.0,43,30.19,10.0,Calm,Calm,-,N/A,,Clear,0,2013-06-16 10:55:00
4:15 AM,41.0,21.2,45,30.19,10.0,Calm,Calm,-,N/A,,Clear,0,2013-06-16 11:15:00
4:35 AM,42.8,23.0,46,30.19,10.0,South,3.5,-,N/A,,Clear,180,2013-06-16 11:35:00
4:55 AM,39.2,21.2,49,30.19,10.0,Calm,Calm,-,N/A,,Clear,0,2013-06-16 11:55:00
5:15 AM,41.0,23.0,49,30.20,10.0,Calm,Calm,-,N/A,,Clear,0,2013-06-16 12:15:00
5:35 AM,41.0,26.6,57,30.20,10.0,SE,3.5,-,N/A,,Clear,130,2013-06-16 12:35:00
5:55 AM,42.8,26.6,53,30.21,10.0,Calm,Calm,-,N/A,,Clear,0,2013-06-16 12:55:00
6:15 AM,39.2,26.6,61,30.21,10.0,Calm,Calm,-,N/A,,Clear,0,2013-06-16 13:15:00
6:35 AM,44.6,28.4,53,30.22,10.0,Calm,Calm,-,N/A,,Clear,0,2013-06-16 13:35:00
6:55 AM,48.2,28.4,46,30.22,10.0,Calm,Calm,-,N/A,,Clear,0,2013-06-16 13:55:00
7:15 AM,51.8,26.6,38,30.22,10.0,SE,4.6,-,N/A,,Clear,130,2013-06-16 14:15:00
7:35 AM,55.4,26.6,33,30.22,10.0,ESE,4.6,-,N/A,,Clear,120,2013-06-16 14:35:00
7:55 AM,57.2,26.6,31,30.23,10.0,ESE,5.8,-,N/A,,Clear,120,2013-06-16 14:55:00
8:15 AM,59.0,24.8,27,30.23,10.0,ESE,5.8,-,N/A,,Clear,110,2013-06-16 15:15:00
8:35 AM,62.6,23.0,22,30.24,10.0,SE,4.6,-,N/A,,Clear,130,2013-06-16 15:35:00
8:55 AM,62.6,23.0,22,30.24,10.0,SE,4.6,-,N/A,,Clear,140,2013-06-16 15:55:00
9:15 AM,64.4,21.2,19,30.24,10.0,SE,4.6,-,N/A,,Clear,140,2013-06-16 16:15:00
9:35 AM,68.0,17.6,15,30.24,10.0,SSE,5.8,-,N/A,,Clear,150,2013-06-16 16:35:00
9:55 AM,69.8,12.2,11,30.24,10.0,NNW,3.5,-,N/A,,Clear,340,2013-06-16 16:55:00
10:15 AM,71.6,8.6,9,30.24,10.0,WNW,10.4,16.1,N/A,,Clear,290,2013-06-16 17:15:00
10:35 AM,71.6,8.6,9,30.24,10.0,NNW,6.9,17.3,N/A,,Clear,340,2013-06-16 17:35:00
10:55 AM,73.4,8.6,8,30.24,10.0,NW,10.4,17.3,N/A,,Clear,320,2013-06-16 17:55:00
11:15 AM,73.4,8.6,8,30.24,10.0,West,9.2,-,N/A,,Clear,280,2013-06-16 18:15:00
11:35 AM,71.6,8.6,9,30.24,10.0,Calm,Calm,-,N/A,,Clear,0,2013-06-16 18:35:00
11:55 AM,75.2,14.0,10,30.24,10.0,NW,11.5,-,N/A,,Clear,320,2013-06-16 18:55:00
12:15 PM,75.2,14.0,10,30.24,10.0,NW,12.7,17.3,N/A,,Clear,320,2013-06-16 19:15:00
12:35 PM,75.2,14.0,10,30.23,10.0,North,4.6,16.1,N/A,,Clear,10,2013-06-16 19:35:00
12:55 PM,75.2,12.2,9,30.23,10.0,WNW,11.5,-,N/A,,Clear,290,2013-06-16 19:55:00
1:15 PM,77.0,14.0,9,30.22,10.0,West,17.3,24.2,N/A,,Clear,260,2013-06-16 20:15:00
1:35 PM,77.0,15.8,10,30.22,10.0,WNW,15.0,27.6,N/A,,Clear,290,2013-06-16 20:35:00
1:55 PM,77.0,15.8,10,30.21,10.0,West,11.5,19.6,N/A,,Clear,280,2013-06-16 20:55:00
2:15 PM,77.0,17.6,11,30.21,10.0,NNW,17.3,25.3,N/A,,Clear,330,2013-06-16 21:15:00
2:35 PM,77.0,19.4,12,30.21,10.0,NW,16.1,26.5,N/A,,Clear,310,2013-06-16 21:35:00
2:55 PM,78.8,21.2,12,30.20,10.0,NW,18.4,29.9,N/A,,Clear,320,2013-06-16 21:55:00
3:15 PM,78.8,21.2,12,30.20,10.0,NW,17.3,27.6,N/A,,Clear,310,2013-06-16 22:15:00
3:35 PM,77.0,23.0,13,30.20,10.0,NNW,16.1,27.6,N/A,,Clear,330,2013-06-16 22:35:00
3:55 PM,77.0,24.8,14,30.21,10.0,NW,24.2,29.9,N/A,,Clear,310,2013-06-16 22:55:00
4:15 PM,77.0,24.8,14,30.21,10.0,NW,23.0,29.9,N/A,,Clear,310,2013-06-16 23:15:00
4:35 PM,75.2,24.8,15,30.21,10.0,NW,24.2,34.5,N/A,,Clear,310,2013-06-16 23:35:00
4:55 PM,73.4,26.6,18,30.21,10.0,WNW,20.7,36.8,N/A,,Clear,300,2013-06-16 23:55:00
5:15 PM,73.4,26.6,18,30.21,10.0,WNW,23.0,29.9,N/A,,Clear,290,2013-06-17 00:15:00
5:35 PM,73.4,28.4,19,30.20,10.0,West,23.0,-,N/A,,Clear,280,2013-06-17 00:35:00
5:55 PM,73.4,28.4,19,30.20,10.0,West,19.6,24.2,N/A,,Clear,280,2013-06-17 00:55:00
6:15 PM,73.4,28.4,19,30.20,10.0,WSW,6.9,24.2,N/A,,Clear,240,2013-06-17 01:15:00
6:35 PM,71.6,30.2,22,30.21,10.0,NW,20.7,31.1,N/A,,Clear,310,2013-06-17 01:35:00
6:55 PM,69.8,32.0,25,30.22,10.0,WNW,20.7,28.8,N/A,,Clear,300,2013-06-17 01:55:00
7:15 PM,69.8,32.0,25,30.22,10.0,WNW,18.4,26.5,N/A,,Clear,290,2013-06-17 02:15:00
7:35 PM,66.2,32.0,28,30.23,10.0,NW,6.9,20.7,N/A,,Clear,310,2013-06-17 02:35:00
7:55 PM,66.2,32.0,28,30.23,10.0,WNW,12.7,20.7,N/A,,Clear,290,2013-06-17 02:55:00
8:15 PM,62.6,32.0,32,30.24,10.0,WNW,10.4,19.6,N/A,,Clear,300,2013-06-17 03:15:00
8:35 PM,60.8,33.8,36,30.24,10.0,NW,13.8,-,N/A,,Clear,310,2013-06-17 03:35:00
8:55 PM,59.0,33.8,39,30.24,10.0,NW,12.7,16.1,N/A,,Clear,310,2013-06-17 03:55:00
9:15 PM,59.0,33.8,39,30.25,10.0,WNW,12.7,23.0,N/A,,Clear,300,2013-06-17 04:15:00
9:35 PM,59.0,33.8,39,30.27,10.0,West,8.1,21.9,N/A,,Clear,270,2013-06-17 04:35:00
9:55 PM,57.2,33.8,41,30.28,10.0,West,10.4,19.6,N/A,,Clear,280,2013-06-17 04:55:00
10:15 PM,57.2,33.8,41,30.29,10.0,West,8.1,16.1,N/A,,Clear,280,2013-06-17 05:15:00
10:35 PM,55.4,33.8,44,30.29,10.0,West,6.9,-,N/A,,Clear,270,2013-06-17 05:35:00
10:55 PM,55.4,33.8,44,30.29,10.0,WNW,3.5,-,N/A,,Clear,300,2013-06-17 05:55:00
11:15 PM,53.6,33.8,47,30.29,10.0,West,8.1,-,N/A,,Clear,280,2013-06-17 06:15:00
11:35 PM,53.6,33.8,47,30.29,10.0,West,9.2,-,N/A,,Clear,270,2013-06-17 06:35:00
11:55 PM,51.8,33.8,50,30.29,10.0,West,9.2,-,N/A,,Clear,280,2013-06-17 06:55:00